Zurück zum Katalog

STARLINK-11264

AktivKommunikationVLEO
NORAD 60906·PAYLOAD·🇺🇸 United States

Gestartet Aug 31, 2024 von Cape Canaveral Space Force Station

Loading…

Nächste Überflüge (nächste 24 Stunden)

TLE

AktuellSource: CelesTrak SupGP

Epoche: Sep 15, 2026, 01:50 UTC

1 60906C 24154D   26258.07687500  .00061522  00000+0  50645-3 0  2589
2 60906  53.1576 277.9041 0001261  96.4733   2.4082 15.69694008    17

Verfolge STARLINK-11264 in Echtzeit mit AllMySat

Download on the App Store